BAW336 EGLL-LFMN

Flight info

Callsign BAW336
Flight time 1h 38m
Altitude 33000
Route MAXIT Y803 MID UL612 VEULE DCT KOTAP DCT KETEX DCT KOTIS DCT KUKOR DCT UTUVA DCT LERGA DCT LIQID DCT LATAM DCT TUNUR DCT NISAR
Aircraft A21N/M-SDE2E3FGHIRWXY/LB1

Departure

Time 2026-05-04 17:32
Airport London Heathrow Airport (EGLL)

Arrival

Time 2026-05-04 19:11
Airport Nice-Côte d'Azur Airport (LFMN)
Time Latitude Longitude Altitude Speed Heading
2026-05-04 17:01 51.47271 -0.48588 77 ft 0 kts 270°
2026-05-04 17:04 51.47270 -0.48588 87 ft 0 kts 270°
2026-05-04 17:20 51.47270 -0.48560 88 ft 4 kts 270°
2026-05-04 17:20 51.47271 -0.48526 90 ft 4 kts 274°
2026-05-04 17:21 51.47245 -0.48476 90 ft 3 kts 360°
2026-05-04 17:21 51.47242 -0.48476 89 ft 0 kts 360°
2026-05-04 17:24 51.47448 -0.48477 87 ft 17 kts 360°
2026-05-04 17:25 51.47545 -0.48477 87 ft 9 kts
2026-05-04 17:25 51.47578 -0.48233 90 ft 21 kts 90°
2026-05-04 17:26 51.47580 -0.47622 90 ft 30 kts 90°
2026-05-04 17:26 51.47591 -0.46754 87 ft 19 kts 89°
2026-05-04 17:27 51.47593 -0.46262 87 ft 28 kts 90°
2026-05-04 17:27 51.47595 -0.45616 90 ft 30 kts 90°
2026-05-04 17:28 51.47597 -0.44957 87 ft 30 kts 90°
2026-05-04 17:29 51.47592 -0.44044 87 ft 25 kts 90°
2026-05-04 17:29 51.47592 -0.43853 87 ft 0 kts 90°
2026-05-04 17:30 51.47625 -0.43520 90 ft 15 kts 46°
2026-05-04 17:31 51.47765 -0.43479 90 ft 13 kts 291°
2026-05-04 17:31 51.47761 -0.45706 85 ft 157 kts 270°
2026-05-04 17:32 51.47748 -0.49605 1398 ft 173 kts 270°
2026-05-04 17:33 51.47335 -0.55978 3062 ft 221 kts 256°
2026-05-04 17:33 51.46914 -0.58506 3461 ft 247 kts 256°
2026-05-04 17:34 51.43580 -0.64677 5717 ft 269 kts 190°
2026-05-04 17:34 51.41705 -0.64586 5957 ft 272 kts 164°
2026-05-04 17:35 51.36825 -0.59913 5997 ft 273 kts 153°
2026-05-04 17:35 51.33371 -0.57527 5993 ft 272 kts 160°
2026-05-04 17:35 51.31587 -0.56518 5986 ft 272 kts 162°
2026-05-04 17:36 51.29757 -0.55782 5995 ft 271 kts 175°
2026-05-04 17:36 51.27880 -0.55886 5988 ft 270 kts 192°
2026-05-04 17:36 51.26028 -0.56415 5987 ft 271 kts 188°
2026-05-04 17:36 51.24156 -0.56791 5980 ft 271 kts 188°
2026-05-04 17:37 51.22277 -0.57216 6180 ft 274 kts 189°
2026-05-04 17:37 51.20396 -0.57727 6926 ft 274 kts 191°
2026-05-04 17:37 51.18558 -0.58279 7937 ft 272 kts 192°
2026-05-04 17:37 51.16693 -0.58865 8846 ft 275 kts 192°
2026-05-04 17:38 51.14804 -0.59472 9735 ft 279 kts 192°
2026-05-04 17:38 51.12880 -0.60095 10459 ft 289 kts 192°
2026-05-04 17:38 51.10832 -0.60757 10744 ft 312 kts 192°
2026-05-04 17:38 51.08635 -0.61466 11065 ft 330 kts 192°
2026-05-04 17:39 51.04049 -0.60890 12498 ft 342 kts 156°
2026-05-04 17:39 51.02004 -0.58917 13218 ft 347 kts 147°
2026-05-04 17:39 50.99997 -0.56746 13934 ft 351 kts 147°
2026-05-04 17:40 50.97993 -0.54585 14611 ft 354 kts 147°
2026-05-04 17:40 50.95947 -0.52390 15296 ft 357 kts 147°
2026-05-04 17:40 50.93878 -0.50185 15962 ft 360 kts 147°
2026-05-04 17:40 50.91788 -0.47964 16624 ft 363 kts 147°
2026-05-04 17:41 50.89685 -0.45734 17260 ft 366 kts 147°
2026-05-04 17:41 50.87555 -0.43477 17918 ft 369 kts 147°
2026-05-04 17:41 50.85412 -0.41209 18526 ft 372 kts 147°
2026-05-04 17:41 50.83252 -0.38923 19098 ft 374 kts 147°
2026-05-04 17:42 50.81080 -0.36626 19685 ft 376 kts 147°
2026-05-04 17:42 50.78932 -0.34355 20240 ft 378 kts 147°
2026-05-04 17:42 50.76733 -0.32034 20807 ft 380 kts 148°
2026-05-04 17:42 50.74527 -0.29709 21359 ft 382 kts 148°
2026-05-04 17:43 50.72310 -0.27374 21918 ft 385 kts 148°
2026-05-04 17:43 50.70082 -0.25031 22464 ft 387 kts 148°
2026-05-04 17:43 50.67834 -0.22669 23008 ft 389 kts 148°
2026-05-04 17:43 50.65606 -0.20331 23534 ft 391 kts 148°
2026-05-04 17:44 50.63311 -0.17925 23988 ft 393 kts 148°
2026-05-04 17:44 50.61058 -0.15567 24430 ft 394 kts 148°
2026-05-04 17:44 50.58770 -0.13175 24857 ft 396 kts 149°
2026-05-04 17:44 50.56466 -0.10769 25276 ft 398 kts 149°
2026-05-04 17:45 50.54161 -0.08365 25682 ft 400 kts 149°
2026-05-04 17:45 50.51830 -0.05937 26081 ft 402 kts 149°
2026-05-04 17:45 50.49499 -0.03512 26463 ft 404 kts 149°
2026-05-04 17:45 50.47178 -0.01099 26835 ft 406 kts 149°
2026-05-04 17:46 50.44817 0.01351 27202 ft 408 kts 149°
2026-05-04 17:46 50.42445 0.03809 27550 ft 410 kts 149°
2026-05-04 17:46 50.40064 0.06274 27888 ft 412 kts 149°
2026-05-04 17:46 50.37664 0.08756 28222 ft 414 kts 149°
2026-05-04 17:47 50.35258 0.11240 28534 ft 416 kts 149°
2026-05-04 17:47 50.32839 0.13735 28847 ft 417 kts 149°
2026-05-04 17:47 50.30407 0.16239 29142 ft 419 kts 149°
2026-05-04 17:47 50.27967 0.18749 29431 ft 421 kts 149°
2026-05-04 17:48 50.25512 0.21270 29721 ft 423 kts 149°
2026-05-04 17:48 50.23084 0.23762 30006 ft 425 kts 149°
2026-05-04 17:48 50.20612 0.26296 30249 ft 426 kts 149°
2026-05-04 17:48 50.18125 0.28848 30464 ft 428 kts 149°
2026-05-04 17:49 50.15631 0.31414 30698 ft 431 kts 149°
2026-05-04 17:49 50.13126 0.33990 30932 ft 433 kts 149°
2026-05-04 17:49 50.10607 0.36578 31195 ft 434 kts 149°
2026-05-04 17:49 50.08093 0.39157 31490 ft 434 kts 149°
2026-05-04 17:50 50.05569 0.41742 31792 ft 434 kts 149°
2026-05-04 17:50 50.03049 0.44318 32094 ft 433 kts 149°
2026-05-04 17:50 50.00531 0.46889 32387 ft 433 kts 149°
2026-05-04 17:50 49.98045 0.49424 32665 ft 433 kts 149°
2026-05-04 17:51 49.95527 0.51989 32950 ft 433 kts 149°
2026-05-04 17:51 49.93010 0.54549 32984 ft 432 kts 149°
2026-05-04 17:51 49.87994 0.59641 32980 ft 431 kts 149°
2026-05-04 17:52 49.83009 0.64798 32986 ft 432 kts 147°
2026-05-04 17:52 49.78145 0.70261 32979 ft 432 kts 147°
2026-05-04 17:53 49.73312 0.75668 32972 ft 432 kts 147°
2026-05-04 17:53 49.68427 0.81068 32977 ft 432 kts 147°
2026-05-04 17:54 49.63538 0.86444 32976 ft 432 kts 147°
2026-05-04 17:54 49.58642 0.91814 32979 ft 432 kts 148°
2026-05-04 17:55 49.53781 0.97132 32973 ft 431 kts 148°
2026-05-04 17:55 49.48887 1.02474 32971 ft 431 kts 148°
2026-05-04 17:56 49.43996 1.07798 32968 ft 431 kts 148°
2026-05-04 17:56 49.39102 1.13114 32963 ft 431 kts 148°
2026-05-04 17:57 49.34237 1.18384 32965 ft 431 kts 148°
2026-05-04 17:57 49.29340 1.23676 32963 ft 431 kts 148°
2026-05-04 17:58 49.24426 1.28969 32960 ft 432 kts 148°
2026-05-04 17:58 49.19513 1.34253 32962 ft 432 kts 148°
2026-05-04 17:59 49.14620 1.39501 32956 ft 432 kts 148°
2026-05-04 18:00 49.07239 1.47395 32954 ft 432 kts 148°
2026-05-04 18:00 49.02304 1.52653 32950 ft 433 kts 148°
2026-05-04 18:01 48.97355 1.57918 32961 ft 435 kts 148°
2026-05-04 18:01 48.92422 1.63153 32969 ft 436 kts 148°
2026-05-04 18:02 48.84959 1.71045 32960 ft 436 kts 148°
2026-05-04 18:02 48.79986 1.76290 32957 ft 435 kts 148°
2026-05-04 18:03 48.75037 1.81496 32952 ft 435 kts 149°
2026-05-04 18:03 48.70066 1.86713 32943 ft 435 kts 149°
2026-05-04 18:04 48.65093 1.91919 32940 ft 435 kts 149°
2026-05-04 18:05 48.57632 1.99704 32942 ft 435 kts 149°
2026-05-04 18:05 48.52688 2.04848 32942 ft 434 kts 149°
2026-05-04 18:06 48.45225 2.12587 32950 ft 434 kts 149°
2026-05-04 18:06 48.40247 2.17734 32940 ft 433 kts 150°
2026-05-04 18:07 48.35280 2.22857 32935 ft 433 kts 150°
2026-05-04 18:07 48.30259 2.27801 32952 ft 429 kts 155°
2026-05-04 18:08 48.24869 2.31329 32948 ft 422 kts 166°
2026-05-04 18:08 48.19217 2.33608 32944 ft 420 kts 168°
2026-05-04 18:09 48.08009 2.38611 32940 ft 421 kts 165°
2026-05-04 18:10 48.02497 2.41366 32937 ft 420 kts 165°
2026-05-04 18:10 47.96956 2.44118 32934 ft 420 kts 165°
2026-05-04 18:11 47.91416 2.46862 32929 ft 419 kts 165°
2026-05-04 18:11 47.85881 2.49597 32929 ft 419 kts 165°
2026-05-04 18:12 47.80381 2.52309 32927 ft 419 kts 165°
2026-05-04 18:12 47.74850 2.55029 32923 ft 419 kts 165°
2026-05-04 18:13 47.69309 2.57749 32921 ft 419 kts 165°
2026-05-04 18:14 47.60986 2.61822 32921 ft 420 kts 165°
2026-05-04 18:14 47.55468 2.64515 32920 ft 421 kts 165°
2026-05-04 18:15 47.44329 2.69933 32926 ft 422 kts 165°
2026-05-04 18:16 47.38736 2.72645 32928 ft 423 kts 165°
2026-05-04 18:16 47.33182 2.75333 32929 ft 424 kts 165°
2026-05-04 18:17 47.24770 2.79391 32931 ft 424 kts 165°
2026-05-04 18:18 47.16360 2.83435 32930 ft 424 kts 165°
2026-05-04 18:18 47.10788 2.86106 32927 ft 424 kts 165°
2026-05-04 18:19 47.02387 2.90122 32920 ft 423 kts 165°
2026-05-04 18:19 46.96792 2.92789 32917 ft 423 kts 165°
2026-05-04 18:20 46.91202 2.95449 32913 ft 422 kts 165°
2026-05-04 18:20 46.85614 2.98102 32913 ft 422 kts 165°
2026-05-04 18:21 46.80074 3.00726 32913 ft 421 kts 165°
2026-05-04 18:21 46.74497 3.03362 32912 ft 421 kts 165°
2026-05-04 18:22 46.68921 3.05991 32913 ft 421 kts 165°
2026-05-04 18:22 46.63347 3.08614 32911 ft 421 kts 165°
2026-05-04 18:23 46.57811 3.11213 32913 ft 421 kts 165°
2026-05-04 18:23 46.52243 3.13857 32909 ft 422 kts 164°
2026-05-04 18:24 46.46741 3.16855 32912 ft 423 kts 162°
2026-05-04 18:24 46.41238 3.19879 32920 ft 423 kts 163°
2026-05-04 18:25 46.35763 3.22835 32926 ft 423 kts 163°
2026-05-04 18:25 46.30235 3.25798 32930 ft 424 kts 163°
2026-05-04 18:26 46.24705 3.28755 32934 ft 424 kts 163°
2026-05-04 18:26 46.19169 3.31709 32942 ft 424 kts 163°
2026-05-04 18:27 46.13664 3.34640 32947 ft 425 kts 163°
2026-05-04 18:27 46.08122 3.37585 32950 ft 424 kts 163°
2026-05-04 18:28 46.02584 3.40522 32943 ft 424 kts 163°
2026-05-04 18:28 45.97052 3.43450 32939 ft 423 kts 163°
2026-05-04 18:29 45.91558 3.46350 32938 ft 423 kts 163°
2026-05-04 18:29 45.86029 3.49220 32950 ft 422 kts 166°
2026-05-04 18:30 45.77636 3.52858 32953 ft 419 kts 167°
2026-05-04 18:31 45.72054 3.55262 32950 ft 418 kts 167°
2026-05-04 18:31 45.66544 3.57631 32948 ft 417 kts 167°
2026-05-04 18:32 45.60990 3.60012 32948 ft 416 kts 167°
2026-05-04 18:32 45.55456 3.62381 32947 ft 415 kts 167°
2026-05-04 18:33 45.49928 3.64743 32946 ft 414 kts 168°
2026-05-04 18:33 45.44448 3.67077 32950 ft 414 kts 168°
2026-05-04 18:34 45.38926 3.69426 32954 ft 414 kts 168°
2026-05-04 18:34 45.33409 3.71768 32958 ft 413 kts 168°
2026-05-04 18:35 45.28004 3.74607 32952 ft 421 kts 155°
2026-05-04 18:35 45.25585 3.77003 32949 ft 429 kts 144°
2026-05-04 18:35 45.23519 3.80043 32946 ft 438 kts 134°
2026-05-04 18:36 45.20141 3.87342 32945 ft 444 kts 129°
2026-05-04 18:36 45.16794 3.94703 32947 ft 445 kts 129°
2026-05-04 18:37 45.13446 4.02024 32955 ft 446 kts 129°
2026-05-04 18:37 45.10067 4.09391 32964 ft 447 kts 129°
2026-05-04 18:38 45.07100 4.15848 32970 ft 448 kts 129°
2026-05-04 18:38 45.03580 4.23092 32982 ft 445 kts 134°
2026-05-04 18:39 44.99597 4.29727 33000 ft 441 kts 139°
2026-05-04 18:39 44.95453 4.36078 33012 ft 443 kts 139°
2026-05-04 18:40 44.91285 4.42502 33028 ft 444 kts 139°
2026-05-04 18:40 44.87101 4.48918 33025 ft 444 kts 139°
2026-05-04 18:41 44.82912 4.55320 33028 ft 444 kts 139°
2026-05-04 18:41 44.78752 4.61657 33016 ft 443 kts 138°
2026-05-04 18:42 44.74565 4.68023 33020 ft 443 kts 138°
2026-05-04 18:42 44.70373 4.74384 33005 ft 443 kts 138°
2026-05-04 18:43 44.66185 4.80724 33008 ft 442 kts 138°
2026-05-04 18:43 44.62048 4.87043 32995 ft 443 kts 137°
2026-05-04 18:44 44.57995 4.93575 32988 ft 443 kts 136°
2026-05-04 18:44 44.53943 5.00091 32986 ft 443 kts 136°
2026-05-04 18:45 44.49869 5.06583 32981 ft 444 kts 137°
2026-05-04 18:45 44.45789 5.13065 32976 ft 444 kts 137°
2026-05-04 18:46 44.41717 5.19520 32657 ft 446 kts 137°
2026-05-04 18:46 44.39662 5.22772 32397 ft 446 kts 137°
2026-05-04 18:46 44.37558 5.25952 32133 ft 444 kts 141°
2026-05-04 18:46 44.35257 5.28794 31673 ft 440 kts 147°
2026-05-04 18:47 44.32835 5.31416 30857 ft 443 kts 147°
2026-05-04 18:47 44.30418 5.34040 30286 ft 437 kts 147°
2026-05-04 18:47 44.28082 5.36586 29961 ft 429 kts 147°
2026-05-04 18:47 44.25717 5.39160 29458 ft 432 kts 147°
2026-05-04 18:48 44.23347 5.41735 28944 ft 431 kts 147°
2026-05-04 18:48 44.20998 5.44287 28455 ft 426 kts 147°
2026-05-04 18:48 44.18670 5.46816 27962 ft 422 kts 147°
2026-05-04 18:48 44.16357 5.49324 27469 ft 419 kts 147°
2026-05-04 18:49 44.14064 5.51807 27045 ft 416 kts 147°
2026-05-04 18:49 44.11783 5.54276 26574 ft 416 kts 147°
2026-05-04 18:49 44.09490 5.56753 25831 ft 417 kts 147°
2026-05-04 18:49 44.07246 5.59179 25395 ft 409 kts 146°
2026-05-04 18:50 44.05024 5.61582 25056 ft 404 kts 146°
2026-05-04 18:50 44.02794 5.63984 24594 ft 407 kts 146°
2026-05-04 18:50 44.00561 5.66388 24117 ft 405 kts 146°
2026-05-04 18:50 43.98339 5.68781 23644 ft 402 kts 146°
2026-05-04 18:51 43.96142 5.71144 23130 ft 398 kts 146°
2026-05-04 18:51 43.93961 5.73487 22669 ft 394 kts 146°
2026-05-04 18:51 43.91801 5.75806 22211 ft 392 kts 146°
2026-05-04 18:51 43.89650 5.78113 21755 ft 389 kts 146°
2026-05-04 18:52 43.87548 5.80365 21312 ft 386 kts 146°
2026-05-04 18:52 43.85432 5.82630 20863 ft 383 kts 146°
2026-05-04 18:52 43.83335 5.84871 20524 ft 378 kts 146°
2026-05-04 18:52 43.81244 5.87101 19839 ft 381 kts 146°
2026-05-04 18:53 43.79152 5.89330 19358 ft 375 kts 146°
2026-05-04 18:53 43.77111 5.91507 19077 ft 369 kts 146°
2026-05-04 18:53 43.75068 5.93680 18667 ft 371 kts 146°
2026-05-04 18:53 43.73026 5.95849 18223 ft 368 kts 146°
2026-05-04 18:54 43.71041 5.97959 17780 ft 362 kts 146°
2026-05-04 18:54 43.69040 6.00081 17352 ft 363 kts 146°
2026-05-04 18:54 43.67046 6.02196 17041 ft 358 kts 146°
2026-05-04 18:54 43.65103 6.04260 16903 ft 345 kts 146°
2026-05-04 18:55 43.63242 6.06236 16775 ft 331 kts 146°
2026-05-04 18:55 43.59893 6.10271 16124 ft 321 kts 130°
2026-05-04 18:55 43.58774 6.12952 15595 ft 326 kts 115°
2026-05-04 18:56 43.58000 6.15843 15143 ft 325 kts 114°
2026-05-04 18:56 43.57217 6.18749 14703 ft 323 kts 114°
2026-05-04 18:56 43.56428 6.21636 14261 ft 321 kts 114°
2026-05-04 18:56 43.55636 6.24506 13839 ft 319 kts 114°
2026-05-04 18:57 43.54850 6.27349 13337 ft 317 kts 114°
2026-05-04 18:57 43.54068 6.30175 12922 ft 313 kts 114°
2026-05-04 18:57 43.53295 6.32968 12480 ft 311 kts 114°
2026-05-04 18:57 43.52528 6.35733 12059 ft 307 kts 114°
2026-05-04 18:58 43.51775 6.38443 11637 ft 305 kts 114°
2026-05-04 18:58 43.51025 6.41138 11309 ft 299 kts 116°
2026-05-04 18:58 43.50073 6.43626 10979 ft 291 kts 127°
2026-05-04 18:58 43.48805 6.45759 10627 ft 286 kts 137°
2026-05-04 18:59 43.47423 6.47707 10296 ft 283 kts 137°
2026-05-04 18:59 43.46064 6.49652 9957 ft 281 kts 136°
2026-05-04 18:59 43.44716 6.51595 9626 ft 279 kts 136°
2026-05-04 18:59 43.43384 6.53518 9287 ft 277 kts 136°
2026-05-04 19:00 43.42056 6.55436 8968 ft 276 kts 136°
2026-05-04 19:00 43.40742 6.57330 8655 ft 272 kts 136°
2026-05-04 19:00 43.39449 6.59189 8338 ft 273 kts 135°
2026-05-04 19:00 43.38143 6.61064 8068 ft 268 kts 134°
2026-05-04 19:01 43.37185 6.63259 7654 ft 275 kts 107°
2026-05-04 19:01 43.36890 6.65870 7231 ft 278 kts 96°
2026-05-04 19:01 43.36810 6.68532 6763 ft 279 kts 94°
2026-05-04 19:01 43.36780 6.71157 6563 ft 269 kts 93°
2026-05-04 19:02 43.36765 6.73718 6322 ft 268 kts 93°
2026-05-04 19:02 43.36753 6.76264 6055 ft 265 kts 93°
2026-05-04 19:02 43.36738 6.78777 5797 ft 262 kts 90°
2026-05-04 19:02 43.37201 6.81181 5481 ft 265 kts 62°
2026-05-04 19:03 43.38244 6.82869 5202 ft 267 kts 43°
2026-05-04 19:03 43.39684 6.84446 4913 ft 262 kts 41°
2026-05-04 19:03 43.40905 6.86226 4606 ft 252 kts 58°
2026-05-04 19:03 43.41928 6.88217 4305 ft 257 kts 54°
2026-05-04 19:04 43.43088 6.90065 4036 ft 252 kts 49°
2026-05-04 19:04 43.44304 6.91760 3987 ft 243 kts 47°
2026-05-04 19:04 43.45446 6.93320 3988 ft 226 kts 47°
2026-05-04 19:04 43.46547 6.94828 3999 ft 223 kts 48°
2026-05-04 19:05 43.47598 6.96265 4016 ft 200 kts 48°
2026-05-04 19:05 43.48576 6.97608 3997 ft 203 kts 48°
2026-05-04 19:05 43.49569 6.98968 3992 ft 199 kts 48°
2026-05-04 19:05 43.50551 7.00313 3994 ft 199 kts 48°
2026-05-04 19:06 43.51533 7.01659 3857 ft 198 kts 48°
2026-05-04 19:06 43.52508 7.02995 3567 ft 199 kts 48°
2026-05-04 19:06 43.53488 7.04339 3294 ft 197 kts 48°
2026-05-04 19:06 43.54441 7.05649 3027 ft 195 kts 48°
2026-05-04 19:07 43.55358 7.06903 2763 ft 176 kts 48°
2026-05-04 19:07 43.56219 7.08089 2526 ft 175 kts 48°
2026-05-04 19:07 43.57084 7.09275 2298 ft 176 kts 48°
2026-05-04 19:07 43.57956 7.10474 2066 ft 176 kts 48°
2026-05-04 19:08 43.58779 7.11601 1841 ft 156 kts 48°
2026-05-04 19:08 43.59504 7.12598 1641 ft 140 kts 48°
2026-05-04 19:08 43.60169 7.13513 1438 ft 130 kts 48°
2026-05-04 19:08 43.60817 7.14408 1260 ft 132 kts 47°
2026-05-04 19:09 43.61461 7.15291 1082 ft 132 kts 48°
2026-05-04 19:09 43.62098 7.16167 909 ft 129 kts 48°
2026-05-04 19:09 43.62729 7.17033 736 ft 128 kts 48°
2026-05-04 19:09 43.63362 7.17907 563 ft 129 kts 47°
2026-05-04 19:10 43.63888 7.18624 424 ft 128 kts 47°
2026-05-04 19:10 43.64518 7.19478 289 ft 126 kts 49°
2026-05-04 19:10 43.65131 7.20340 109 ft 127 kts 48°
2026-05-04 19:10 43.65740 7.21176 23 ft 111 kts 45°
2026-05-04 19:11 43.66105 7.21678 20 ft 45 kts 44°
2026-05-04 19:11 43.66215 7.21748 21 ft 14 kts 334°
2026-05-04 19:11 43.66284 7.21655 21 ft 14 kts 315°
2026-05-04 19:11 43.66353 7.21564 21 ft 14 kts 315°
2026-05-04 19:12 43.66357 7.21451 23 ft 13 kts 243°
2026-05-04 19:12 43.66368 7.21340 22 ft 5 kts 342°
2026-05-04 19:12 43.66422 7.21328 21 ft 6 kts 351°
2026-05-04 19:13 43.66429 7.21327 22 ft 0 kts 351°
2026-05-04 19:42 43.66421 7.21329 21 ft 4 kts 351°
2026-05-04 19:43 43.66394 7.21335 21 ft 4 kts 350°
2026-05-04 19:43 43.66372 7.21341 24 ft 4 kts 355°
2026-05-04 19:43 43.66350 7.21336 21 ft 4 kts 55°
2026-05-04 19:43 43.66337 7.21294 21 ft 4 kts 81°
2026-05-04 19:44 43.66336 7.21282 21 ft 0 kts 80°
2026-05-04 19:46 43.66337 7.21293 21 ft 3 kts 80°
2026-05-04 19:47 43.66347 7.21384 23 ft 16 kts 82°
2026-05-04 19:47 43.66374 7.21494 21 ft 12 kts 72°
2026-05-04 19:47 43.66327 7.21596 21 ft 14 kts 138°
2026-05-04 19:47 43.66248 7.21550 21 ft 15 kts 224°
2026-05-04 19:48 43.66154 7.21421 21 ft 25 kts 225°
2026-05-04 19:48 43.66015 7.21230 21 ft 30 kts 225°
2026-05-04 19:48 43.65865 7.21024 23 ft 30 kts 225°
2026-05-04 19:48 43.65752 7.20881 21 ft 11 kts 205°
2026-05-04 19:49 43.65667 7.20894 21 ft 14 kts 171°
2026-05-04 19:49 43.65561 7.20917 22 ft 19 kts 170°
2026-05-04 19:49 43.65407 7.20952 23 ft 21 kts 171°
2026-05-04 19:49 43.65280 7.20858 21 ft 24 kts 225°
2026-05-04 19:50 43.65156 7.20690 21 ft 26 kts 225°
2026-05-04 19:50 43.65024 7.20508 22 ft 28 kts 225°
2026-05-04 19:50 43.64884 7.20315 22 ft 29 kts 225°
2026-05-04 19:50 43.64807 7.20272 23 ft 9 kts 164°
2026-05-04 19:51 43.64768 7.20337 25 ft 9 kts 93°
2026-05-04 19:51 43.64798 7.20423 26 ft 11 kts 43°
2026-05-04 19:51 43.64886 7.20544 25 ft 41 kts 45°
2026-05-04 19:51 43.65287 7.21092 24 ft 117 kts 44°
2026-05-04 19:52 43.66003 7.22086 102 ft 166 kts 46°
2026-05-04 19:52 43.66799 7.23277 798 ft 172 kts 62°
2026-05-04 19:52 43.66878 7.24888 1561 ft 177 kts 110°
2026-05-04 19:52 43.66256 7.26448 2129 ft 199 kts 125°
2026-05-04 19:53 43.65340 7.28005 2669 ft 218 kts 129°
2026-05-04 19:53 43.64296 7.29555 3409 ft 221 kts 132°
2026-05-04 19:53 43.63351 7.31101 3867 ft 206 kts 115°
2026-05-04 19:53 43.63032 7.33035 4314 ft 216 kts 86°
2026-05-04 19:54 43.63412 7.35063 5145 ft 218 kts 70°
2026-05-04 19:54 43.64023 7.36973 6076 ft 220 kts 67°
2026-05-04 19:54 43.64687 7.38899 6865 ft 225 kts 68°
2026-05-04 19:54 43.65329 7.40895 7606 ft 230 kts 70°
2026-05-04 19:55 43.65921 7.42977 8341 ft 236 kts 73°
2026-05-04 19:55 43.66482 7.45126 9112 ft 240 kts 74°
2026-05-04 19:55 43.67046 7.47325 9842 ft 247 kts 74°
2026-05-04 19:55 43.67642 7.49598 10016 ft 252 kts 70°
2026-05-04 19:56 43.68651 7.51529 10053 ft 258 kts 40°
2026-05-04 19:56 43.70261 7.52607 10046 ft 261 kts
2026-05-04 19:56 43.72060 7.52468 10049 ft 261 kts 338°
2026-05-04 19:56 43.73565 7.51140 10050 ft 257 kts 307°
2026-05-04 19:57 43.74377 7.49002 10049 ft 250 kts 277°
2026-05-04 19:57 43.74630 7.46583 10059 ft 267 kts 273°
2026-05-04 19:57 43.74899 7.43870 10057 ft 303 kts 275°
2026-05-04 19:57 43.75228 7.40825 10054 ft 335 kts 276°
2026-05-04 19:58 43.75595 7.37651 10047 ft 336 kts 276°
2026-05-04 19:58 43.75968 7.34557 10048 ft 317 kts 276°
2026-05-04 19:58 43.76320 7.31647 10052 ft 298 kts 276°
2026-05-04 19:58 43.76657 7.28835 10050 ft 305 kts 277°
2026-05-04 19:59 43.77298 7.25892 10303 ft 333 kts 291°
2026-05-04 19:59 43.78514 7.23065 10833 ft 349 kts 306°
2026-05-04 19:59 43.80104 7.20512 11643 ft 352 kts 309°
2026-05-04 19:59 43.81710 7.17934 12497 ft 354 kts 308°
2026-05-04 20:00 43.83316 7.15332 13321 ft 356 kts 308°
2026-05-04 20:00 43.84907 7.12746 14102 ft 359 kts 308°
2026-05-04 20:00 43.86535 7.10098 14784 ft 363 kts 308°
2026-05-04 20:00 43.88182 7.07418 15473 ft 367 kts 308°
2026-05-04 20:01 43.89847 7.04710 16162 ft 371 kts 308°
2026-05-04 20:01 43.91527 7.01975 16833 ft 375 kts 308°
2026-05-04 20:01 43.93225 6.99209 17508 ft 378 kts 307°
2026-05-04 20:01 43.94936 6.96419 18188 ft 381 kts 307°
2026-05-04 20:02 43.96662 6.93595 18740 ft 386 kts 307°
2026-05-04 20:02 43.98404 6.90745 19339 ft 389 kts 307°
2026-05-04 20:02 44.00138 6.87905 19879 ft 393 kts 307°
2026-05-04 20:02 44.01915 6.84994 20437 ft 396 kts 307°
2026-05-04 20:03 44.03705 6.82056 20995 ft 399 kts 307°
2026-05-04 20:03 44.05506 6.79099 21550 ft 402 kts 307°
2026-05-04 20:03 44.07318 6.76120 22068 ft 406 kts 307°
2026-05-04 20:03 44.09149 6.73105 22615 ft 409 kts 307°
2026-05-04 20:04 44.10989 6.70069 23151 ft 412 kts 307°
2026-05-04 20:04 44.12840 6.67014 23658 ft 415 kts 307°
2026-05-04 20:04 44.14681 6.63975 24083 ft 417 kts 307°
2026-05-04 20:04 44.16554 6.60880 24536 ft 419 kts 306°
2026-05-04 20:05 44.18436 6.57766 24932 ft 422 kts 306°
2026-05-04 20:05 44.20437 6.54745 25317 ft 428 kts 313°
2026-05-04 20:05 44.22718 6.52051 25722 ft 433 kts 320°
2026-05-04 20:05 44.25255 6.49725 26153 ft 439 kts 326°
2026-05-04 20:06 44.27913 6.47593 26525 ft 443 kts 326°
2026-05-04 20:06 44.30586 6.45434 26940 ft 445 kts 326°
2026-05-04 20:06 44.33240 6.43281 27308 ft 448 kts 326°
2026-05-04 20:06 44.35939 6.41087 27661 ft 451 kts 326°
2026-05-04 20:07 44.38660 6.38870 28018 ft 454 kts 326°
2026-05-04 20:07 44.41399 6.36636 28370 ft 457 kts 326°
2026-05-04 20:07 44.44146 6.34395 28686 ft 459 kts 326°
2026-05-04 20:07 44.46913 6.32135 28997 ft 462 kts 325°
2026-05-04 20:08 44.49700 6.29857 29304 ft 464 kts 325°
2026-05-04 20:08 44.52488 6.27575 29600 ft 467 kts 325°
2026-05-04 20:08 44.55307 6.25264 29879 ft 469 kts 325°
2026-05-04 20:08 44.58119 6.22957 30178 ft 471 kts 325°
2026-05-04 20:09 44.60927 6.20650 30459 ft 473 kts 325°
2026-05-04 20:09 44.63767 6.18315 30739 ft 474 kts 325°
2026-05-04 20:09 44.66614 6.15971 31049 ft 475 kts 324°
2026-05-04 20:09 44.69466 6.13620 31395 ft 475 kts 324°
2026-05-04 20:10 44.72307 6.11275 31786 ft 473 kts 324°
2026-05-04 20:10 44.75139 6.08937 32216 ft 470 kts 324°
2026-05-04 20:10 44.77950 6.06612 32583 ft 468 kts 324°
2026-05-04 20:10 44.80760 6.04284 32908 ft 468 kts 324°
2026-05-04 20:11 44.83522 6.01993 33231 ft 468 kts 324°
2026-05-04 20:11 44.86326 5.99664 33592 ft 467 kts 324°
2026-05-04 20:11 44.89112 5.97348 33882 ft 465 kts 324°
2026-05-04 20:11 44.91906 5.95022 34006 ft 466 kts 324°
2026-05-04 20:12 44.94690 5.92703 34002 ft 464 kts 324°
2026-05-04 20:12 45.00248 5.88065 33995 ft 464 kts 324°
2026-05-04 20:13 45.05809 5.83410 33989 ft 465 kts 324°
2026-05-04 20:13 45.11285 5.78674 33986 ft 463 kts 322°
2026-05-04 20:14 45.16672 5.73669 33992 ft 464 kts 322°
2026-05-04 20:14 45.22078 5.68670 33991 ft 464 kts 322°
2026-05-04 20:15 45.27500 5.63682 33996 ft 465 kts 322°
2026-05-04 20:15 45.32908 5.58704 33998 ft 466 kts 322°
2026-05-04 20:16 45.38346 5.53686 34010 ft 467 kts 322°
2026-05-04 20:16 45.43797 5.48643 34008 ft 467 kts 322°
2026-05-04 20:17 45.49352 5.43910 34010 ft 471 kts 327°
2026-05-04 20:17 45.55305 5.39938 34013 ft 473 kts 332°
2026-05-04 20:18 45.61346 5.36216 34003 ft 473 kts 332°
2026-05-04 20:18 45.67380 5.32476 33984 ft 472 kts 332°